Retour au catalogue

BLOCK DM-SL R/B

ActifGTO
NORAD 38357·ROCKET BODY· XX

Lancé Jun 1, 2012 depuis Sea Launch Platform

Loading…

TLE

VieillissantSource: Space-Track

Époque: Sep 14, 2026, 09:42 UTC

1 38357U 12030B   26257.40463478 -.00000055  00000-0  46258-3 0  9999
2 38357   0.7206  24.8459 7094851  40.1869 350.3976  2.25337845117648

Suivez BLOCK DM-SL R/B en temps réel avec AllMySat

Download on the App Store